[{"OBJECT_NAME":"FGN-TUG-S01","OBJECT_ID":"2025-276EE","EPOCH":"2026-09-11T14:00:25.068672","MEAN_MOTION":14.06183299,"ECCENTRICITY":0.04703169,"INCLINATION":97.3781,"RA_OF_ASC_NODE":281.9355,"ARG_OF_PERICENTER":221.9928,"MEAN_ANOMALY":134.4287,"EPHEMERIS_TYPE":0,"CLASSIFICATION_TYPE":"U","NORAD_CAT_ID":100399,"ELEMENT_SET_NO":999,"REV_AT_EPOCH":3865,"BSTAR":0.00010454446,"MEAN_MOTION_DOT":0.00000428,"MEAN_MOTION_DDOT":0},{"OBJECT_NAME":"FRG-10D1","OBJECT_ID":"2025-276EF","EPOCH":"2026-09-11T16:07:47.114112","MEAN_MOTION":14.84310752,"ECCENTRICITY":0.0129976,"INCLINATION":97.3928,"RA_OF_ASC_NODE":311.6234,"ARG_OF_PERICENTER":102.8935,"MEAN_ANOMALY":258.6836,"EPHEMERIS_TYPE":0,"CLASSIFICATION_TYPE":"U","NORAD_CAT_ID":100400,"ELEMENT_SET_NO":999,"REV_AT_EPOCH":4220,"BSTAR":0.00016549561,"MEAN_MOTION_DOT":0.00001559,"MEAN_MOTION_DDOT":0},{"OBJECT_NAME":"QPS-SAR-18 (SUSANOO-II)","OBJECT_ID":"2026-191A","EPOCH":"2026-09-11T07:34:50.253888","MEAN_MOTION":14.97261931,"ECCENTRICITY":0.00074915,"INCLINATION":42.0078,"RA_OF_ASC_NODE":340.3524,"ARG_OF_PERICENTER":44.9312,"MEAN_ANOMALY":315.2117,"EPHEMERIS_TYPE":0,"CLASSIFICATION_TYPE":"U","NORAD_CAT_ID":100401,"ELEMENT_SET_NO":999,"REV_AT_EPOCH":326,"BSTAR":0.00021990056,"MEAN_MOTION_DOT":0.00002411,"MEAN_MOTION_DDOT":0},{"OBJECT_NAME":"ELECTRON R/B","OBJECT_ID":"2026-191B","EPOCH":"2026-09-11T21:57:23.399424","MEAN_MOTION":15.5484685,"ECCENTRICITY":0.02159332,"INCLINATION":42.0009,"RA_OF_ASC_NODE":326.4457,"ARG_OF_PERICENTER":44.8431,"MEAN_ANOMALY":316.9643,"EPHEMERIS_TYPE":0,"CLASSIFICATION_TYPE":"U","NORAD_CAT_ID":100402,"ELEMENT_SET_NO":999,"REV_AT_EPOCH":348,"BSTAR":0.00094242425,"MEAN_MOTION_DOT":0.00191327,"MEAN_MOTION_DDOT":0.000016658967},{"OBJECT_NAME":"ELECTRON KICK STAGE R/B","OBJECT_ID":"2026-191C","EPOCH":"2026-09-11T22:14:52.177056","MEAN_MOTION":15.53530888,"ECCENTRICITY":0.02082634,"INCLINATION":42.004,"RA_OF_ASC_NODE":326.6522,"ARG_OF_PERICENTER":64.0078,"MEAN_ANOMALY":298.2058,"EPHEMERIS_TYPE":0,"CLASSIFICATION_TYPE":"U","NORAD_CAT_ID":100403,"ELEMENT_SET_NO":999,"REV_AT_EPOCH":347,"BSTAR":0.0009298357,"MEAN_MOTION_DOT":0.0016183,"MEAN_MOTION_DDOT":0.000013935581},{"OBJECT_NAME":"STARLINK-37821","OBJECT_ID":"2026-192A","EPOCH":"2026-09-11T18:11:46.232736","MEAN_MOTION":15.6204801,"ECCENTRICITY":0.00019103,"INCLINATION":53.1602,"RA_OF_ASC_NODE":348.6201,"ARG_OF_PERICENTER":26.8132,"MEAN_ANOMALY":333.2981,"EPHEMERIS_TYPE":0,"CLASSIFICATION_TYPE":"U","NORAD_CAT_ID":100404,"ELEMENT_SET_NO":999,"REV_AT_EPOCH":454,"BSTAR":-0.0021641249,"MEAN_MOTION_DOT":-0.00188882,"MEAN_MOTION_DDOT":0},{"OBJECT_NAME":"STARLINK-37829","OBJECT_ID":"2026-192B","EPOCH":"2026-09-11T17:11:54.570048","MEAN_MOTION":15.78183409,"ECCENTRICITY":0.00011431,"INCLINATION":53.1587,"RA_OF_ASC_NODE":348.3424,"ARG_OF_PERICENTER":145.1497,"MEAN_ANOMALY":214.9599,"EPHEMERIS_TYPE":0,"CLASSIFICATION_TYPE":"U","NORAD_CAT_ID":100405,"ELEMENT_SET_NO":999,"REV_AT_EPOCH":454,"BSTAR":-0.0052223497,"MEAN_MOTION_DOT":-0.00828997,"MEAN_MOTION_DDOT":0},{"OBJECT_NAME":"STARLINK-38016","OBJECT_ID":"2026-192C","EPOCH":"2026-09-11T17:24:53.701056","MEAN_MOTION":15.67615788,"ECCENTRICITY":0.00012034,"INCLINATION":53.16,"RA_OF_ASC_NODE":348.4023,"ARG_OF_PERICENTER":88.5574,"MEAN_ANOMALY":271.5581,"EPHEMERIS_TYPE":0,"CLASSIFICATION_TYPE":"U","NORAD_CAT_ID":100406,"ELEMENT_SET_NO":999,"REV_AT_EPOCH":454,"BSTAR":-0.0080819616,"MEAN_MOTION_DOT":-0.00814917,"MEAN_MOTION_DDOT":0},{"OBJECT_NAME":"STARLINK-37983","OBJECT_ID":"2026-192D","EPOCH":"2026-09-11T17:13:41.143584","MEAN_MOTION":15.78111417,"ECCENTRICITY":0.00002224,"INCLINATION":53.1593,"RA_OF_ASC_NODE":348.3522,"ARG_OF_PERICENTER":24.0205,"MEAN_ANOMALY":336.0827,"EPHEMERIS_TYPE":0,"CLASSIFICATION_TYPE":"U","NORAD_CAT_ID":100407,"ELEMENT_SET_NO":999,"REV_AT_EPOCH":454,"BSTAR":-0.005165566,"MEAN_MOTION_DOT":-0.00818113,"MEAN_MOTION_DDOT":0},{"OBJECT_NAME":"STARLINK-38026","OBJECT_ID":"2026-192E","EPOCH":"2026-09-11T17:05:34.923264","MEAN_MOTION":15.77715657,"ECCENTRICITY":0.00012493,"INCLINATION":53.1596,"RA_OF_ASC_NODE":348.314,"ARG_OF_PERICENTER":123.0575,"MEAN_ANOMALY":237.0567,"EPHEMERIS_TYPE":0,"CLASSIFICATION_TYPE":"U","NORAD_CAT_ID":100408,"ELEMENT_SET_NO":999,"REV_AT_EPOCH":454,"BSTAR":-0.0041943716,"MEAN_MOTION_DOT":-0.00664739,"MEAN_MOTION_DDOT":0},{"OBJECT_NAME":"STARLINK-38022","OBJECT_ID":"2026-192F","EPOCH":"2026-09-11T17:21:46.922400","MEAN_MOTION":15.73189667,"ECCENTRICITY":0.00009591,"INCLINATION":53.1596,"RA_OF_ASC_NODE":348.3892,"ARG_OF_PERICENTER":60.6523,"MEAN_ANOMALY":299.4592,"EPHEMERIS_TYPE":0,"CLASSIFICATION_TYPE":"U","NORAD_CAT_ID":100409,"ELEMENT_SET_NO":999,"REV_AT_EPOCH":460,"BSTAR":-0.0020076711,"MEAN_MOTION_DOT":-0.00273304,"MEAN_MOTION_DDOT":0},{"OBJECT_NAME":"STARLINK-37996","OBJECT_ID":"2026-192G","EPOCH":"2026-09-11T17:22:37.227936","MEAN_MOTION":15.74126624,"ECCENTRICITY":0.00019398,"INCLINATION":53.1597,"RA_OF_ASC_NODE":348.3927,"ARG_OF_PERICENTER":19.1394,"MEAN_ANOMALY":340.9698,"EPHEMERIS_TYPE":0,"CLASSIFICATION_TYPE":"U","NORAD_CAT_ID":100410,"ELEMENT_SET_NO":999,"REV_AT_EPOCH":454,"BSTAR":-0.0030956928,"MEAN_MOTION_DOT":-0.0043054,"MEAN_MOTION_DDOT":0},{"OBJECT_NAME":"STARLINK-37397","OBJECT_ID":"2026-192H","EPOCH":"2026-09-11T17:28:31.975968","MEAN_MOTION":15.70414071,"ECCENTRICITY":0.00006634,"INCLINATION":53.1596,"RA_OF_ASC_NODE":348.4212,"ARG_OF_PERICENTER":92.2068,"MEAN_ANOMALY":267.9027,"EPHEMERIS_TYPE":0,"CLASSIFICATION_TYPE":"U","NORAD_CAT_ID":100411,"ELEMENT_SET_NO":999,"REV_AT_EPOCH":454,"BSTAR":-0.0056598962,"MEAN_MOTION_DOT":-0.00653729,"MEAN_MOTION_DDOT":0},{"OBJECT_NAME":"STARLINK-38011","OBJECT_ID":"2026-192J","EPOCH":"2026-09-11T15:50:26.730240","MEAN_MOTION":15.75423407,"ECCENTRICITY":0.00014089,"INCLINATION":53.1594,"RA_OF_ASC_NODE":348.7059,"ARG_OF_PERICENTER":52.4991,"MEAN_ANOMALY":307.6157,"EPHEMERIS_TYPE":0,"CLASSIFICATION_TYPE":"U","NORAD_CAT_ID":100412,"ELEMENT_SET_NO":999,"REV_AT_EPOCH":453,"BSTAR":-0.0055891661,"MEAN_MOTION_DOT":-0.00788208,"MEAN_MOTION_DDOT":0},{"OBJECT_NAME":"STARLINK-38012","OBJECT_ID":"2026-192K","EPOCH":"2026-09-11T17:21:07.136928","MEAN_MOTION":15.71123575,"ECCENTRICITY":0.00010885,"INCLINATION":53.1599,"RA_OF_ASC_NODE":348.3866,"ARG_OF_PERICENTER":97.9166,"MEAN_ANOMALY":262.1976,"EPHEMERIS_TYPE":0,"CLASSIFICATION_TYPE":"U","NORAD_CAT_ID":100413,"ELEMENT_SET_NO":999,"REV_AT_EPOCH":454,"BSTAR":-0.0071685074,"MEAN_MOTION_DOT":-0.0083466,"MEAN_MOTION_DDOT":0},{"OBJECT_NAME":"STARLINK-37764","OBJECT_ID":"2026-192L","EPOCH":"2026-09-11T17:34:49.345248","MEAN_MOTION":15.7653178,"ECCENTRICITY":0.00010862,"INCLINATION":53.1594,"RA_OF_ASC_NODE":348.4522,"ARG_OF_PERICENTER":175.6479,"MEAN_ANOMALY":184.4552,"EPHEMERIS_TYPE":0,"CLASSIFICATION_TYPE":"U","NORAD_CAT_ID":100414,"ELEMENT_SET_NO":999,"REV_AT_EPOCH":454,"BSTAR":-0.0051810026,"MEAN_MOTION_DOT":-0.00769095,"MEAN_MOTION_DDOT":0},{"OBJECT_NAME":"STARLINK-37762","OBJECT_ID":"2026-192M","EPOCH":"2026-09-11T14:16:12.118944","MEAN_MOTION":15.74499525,"ECCENTRICITY":0.00014152,"INCLINATION":53.1599,"RA_OF_ASC_NODE":349.0067,"ARG_OF_PERICENTER":52.1274,"MEAN_ANOMALY":307.9874,"EPHEMERIS_TYPE":0,"CLASSIFICATION_TYPE":"U","NORAD_CAT_ID":100415,"ELEMENT_SET_NO":999,"REV_AT_EPOCH":452,"BSTAR":-0.0060855035,"MEAN_MOTION_DOT":-0.00820859,"MEAN_MOTION_DDOT":0},{"OBJECT_NAME":"STARLINK-37748","OBJECT_ID":"2026-192N","EPOCH":"2026-09-11T15:57:23.364000","MEAN_MOTION":15.74297593,"ECCENTRICITY":0.00006703,"INCLINATION":53.1595,"RA_OF_ASC_NODE":348.7386,"ARG_OF_PERICENTER":23.5172,"MEAN_ANOMALY":336.5879,"EPHEMERIS_TYPE":0,"CLASSIFICATION_TYPE":"U","NORAD_CAT_ID":100416,"ELEMENT_SET_NO":999,"REV_AT_EPOCH":459,"BSTAR":-0.0053939878,"MEAN_MOTION_DOT":-0.00729032,"MEAN_MOTION_DDOT":0},{"OBJECT_NAME":"STARLINK-37774","OBJECT_ID":"2026-192P","EPOCH":"2026-09-11T15:58:52.847616","MEAN_MOTION":15.73359868,"ECCENTRICITY":0.00017211,"INCLINATION":53.1597,"RA_OF_ASC_NODE":348.7459,"ARG_OF_PERICENTER":47.8916,"MEAN_ANOMALY":312.225,"EPHEMERIS_TYPE":0,"CLASSIFICATION_TYPE":"U","NORAD_CAT_ID":100417,"ELEMENT_SET_NO":999,"REV_AT_EPOCH":453,"BSTAR":-0.005970359,"MEAN_MOTION_DOT":-0.00771108,"MEAN_MOTION_DDOT":0},{"OBJECT_NAME":"STARLINK-37703","OBJECT_ID":"2026-192Q","EPOCH":"2026-09-11T13:10:17.031072","MEAN_MOTION":15.80114327,"ECCENTRICITY":0.00022803,"INCLINATION":53.1599,"RA_OF_ASC_NODE":349.4427,"ARG_OF_PERICENTER":123.7432,"MEAN_ANOMALY":236.3808,"EPHEMERIS_TYPE":0,"CLASSIFICATION_TYPE":"U","NORAD_CAT_ID":100418,"ELEMENT_SET_NO":999,"REV_AT_EPOCH":451,"BSTAR":0.0017037494,"MEAN_MOTION_DOT":0.00337094,"MEAN_MOTION_DDOT":0},{"OBJECT_NAME":"STARLINK-37626","OBJECT_ID":"2026-192R","EPOCH":"2026-09-11T17:27:19.295424","MEAN_MOTION":15.78386391,"ECCENTRICITY":0.00019978,"INCLINATION":53.1609,"RA_OF_ASC_NODE":348.4179,"ARG_OF_PERICENTER":219.041,"MEAN_ANOMALY":141.0468,"EPHEMERIS_TYPE":0,"CLASSIFICATION_TYPE":"U","NORAD_CAT_ID":100419,"ELEMENT_SET_NO":999,"REV_AT_EPOCH":454,"BSTAR":-0.0072015093,"MEAN_MOTION_DOT":-0.01135399,"MEAN_MOTION_DDOT":0},{"OBJECT_NAME":"STARLINK-37692","OBJECT_ID":"2026-192S","EPOCH":"2026-09-11T16:02:24.798048","MEAN_MOTION":15.75304342,"ECCENTRICITY":0.00008179,"INCLINATION":53.1597,"RA_OF_ASC_NODE":348.7629,"ARG_OF_PERICENTER":12.7188,"MEAN_ANOMALY":347.3853,"EPHEMERIS_TYPE":0,"CLASSIFICATION_TYPE":"U","NORAD_CAT_ID":100420,"ELEMENT_SET_NO":999,"REV_AT_EPOCH":453,"BSTAR":-0.0037111292,"MEAN_MOTION_DOT":-0.00536382,"MEAN_MOTION_DDOT":0},{"OBJECT_NAME":"STARLINK-38018","OBJECT_ID":"2026-192T","EPOCH":"2026-09-11T17:55:55.184736","MEAN_MOTION":15.64362351,"ECCENTRICITY":0.00008636,"INCLINATION":53.1597,"RA_OF_ASC_NODE":348.5485,"ARG_OF_PERICENTER":25.5411,"MEAN_ANOMALY":334.5647,"EPHEMERIS_TYPE":0,"CLASSIFICATION_TYPE":"U","NORAD_CAT_ID":100421,"ELEMENT_SET_NO":999,"REV_AT_EPOCH":454,"BSTAR":-0.0095509691,"MEAN_MOTION_DOT":-0.00853518,"MEAN_MOTION_DDOT":0}]